Tracking 22124 objects as of 24-Jan-2021
HD Live streaming from Space Station
objects crossing your sky now

ANNA 1B

Track ANNA 1B now!
10-day predictions
ANNA 1B is classified as:


NORAD ID: 446
Int'l Code: 1962-060A
Perigee: 1,081.5 km
Apogee: 1,186.7 km
Inclination: 50.1 °
Period: 107.8 minutes
Semi major axis: 7505 km
RCS: 0.8414 m2 (medium)
Launch date: October 31, 1962
Source: United States (US)
Launch site: AIR FORCE EASTERN TEST RANGE (AFETR)
aabbcc
Your satellite tracking list
Your tracking list is empty




NASA's NSSDC Master Catalog

Two Line Element Set (TLE):
1 00446U 62060A   21023.93095821 -.00000117  00000-0  17735-4 0  9990
2 00446  50.1419 276.2033 0070099 287.7214 160.3853 13.35276104840476
Source of the keplerian elements: AFSPC